Flag for Germany Weather past 2 weeks in Schleswig, Schleswig-Holstein, Germany

Now
68 °F

Overcast.


Feels Like: 68 °F
Forecast: 56 / 64 °F
Wind: 7 mph from West

Location: Schleswig

Current Time: Aug 29, 2014 at 4:15:56 PM

Latest Report: Aug 29, 2014 at 3:00 PM


Visibility: 11 mi

Pressure: 29.90 "Hg

Humidity: 72%

Dew point: 59 °F

Location of SchleswigLocation

Historic Weather in Schleswig — Graph

°F

Schleswig temperature yesterday

Maximum temperature yesterday: 71 °F (at 4:00 PM)
Minimum temperature yesterday: 47 °F (at 6:00 AM)
Average temperature yesterday: 58 °F

Past Weeks' High & Low Weather Summary

 TemperatureHumidityPressure
High71 °F (Aug 28, 4:00 PM)99% (Aug 26, 4:00 AM)30.05 "Hg (Aug 26, 4:00 AM)
Low42 °F (Aug 26, 7:00 AM)42% (Aug 28, 6:00 PM)29.38 "Hg (Aug 18, 11:00 AM)
Average56 °F82%29.81 "Hg
* Reported Aug 14 3:00 PM — Aug 29 3:00 PM, Schleswig, Weather by CustomWeather, © 2014

Note: Actual official high and low records may vary slightly from our data, if they occured in-between our weather recording intervals... More about our weather records

Advertising

Schleswig weather history for previous 24 hours

 ConditionsComfort  
Time TempWeatherWind HumidityBarometerVisibility
3:00 PM
Aug 29
68 °FOvercast.7 mph72%29.90 "Hg11 mi
2:00 PM68 °FOvercast.5 mph75%29.89 "Hg9 mi
1:00 PM66 °FOvercast.5 mph82%29.88 "Hg8 mi
12:00 PM64 °FFog.3 mph90%29.88 "Hg4 mi
10:00 AM60 °FLow clouds.2 mph92%29.88 "Hg5 mi
9:00 AM59 °FLow clouds.2 mph92%29.88 "Hg6 mi
8:00 AM59 °FLight rain. Overcast.3 mph90%29.88 "Hg2 mi
7:00 AM59 °FOvercast.2 mph82%29.88 "Hg16 mi
6:00 AM58 °FOvercast.2 mph86%29.89 "Hg16 mi
5:00 AM57 °FOvercast.2 mph91%29.89 "Hg11 mi
4:00 AM58 °FLight rain. Overcast.1 mph89%29.91 "Hg4 mi
3:00 AM60 °FOvercast.2 mph72%29.92 "Hg19 mi
2:00 AM60 °FOvercast.2 mph74%29.93 "Hg19 mi
1:00 AM59 °FOvercast.2 mph76%29.94 "Hg19 mi
12:00 AM61 °FOvercast.5 mph74%29.95 "Hg19 mi
10:00 PM
Aug 28
60 °FOvercast.3 mph81%29.96 "Hg19 mi
9:00 PM61 °FOvercast.2 mph75%29.97 "Hg16 mi
8:00 PM63 °FPartly sunny.3 mph69%29.96 "Hg19 mi
7:00 PM66 °FPartly sunny.5 mph65%29.97 "Hg19 mi
6:00 PM70 °FScattered clouds.3 mph42%29.97 "Hg28 mi
4:00 PM71 °FPassing clouds.3 mph43%29.99 "Hg31 mi
Weather by CustomWeather, © 2014

See weather overviewHow to use our weather pages